Location: Sungai Apap
(2.6167°N, 113.3833°E)
Time: 22:52:28
(UTC+00:00)

Cosmos 1892 Rocket - Pass Details

Date: 07 August 2024
Orbit: 602 x 629 km, 82.5° (Epoch: 12 September)

Event Time Altitude Azimuth Distance (km) Brightness Sun altitude
Exits shadow 12:29:14 - 202° (SSW) 2,453 6.6 -27.1°
Reaches altitude 10° 12:30:26 10° 207° (SSW) 2,000 6.2 -27.4°
Maximum altitude 12:34:30 36° 274° (W) 987 5.0 -28.4°
Drops below altitude 10° 12:38:33 10° 341° (NNW) 1,980 6.6 -29.3°
Sets 12:40:54 0° 350° (N) 2,878 7.4 -29.9°
